Miscellaneous Local Product
Issued by NWS North Platte, NE

Home | Current Version | Previous Version | Text Only | Print | Product List | Glossary On
Versions: 1 2 3 4 5 6 7 8 9 10 11 12 13 14 15 16 17 18 19 20 21 22 23 24 25 26 27 28 29 30 31 32 33 34 35 36 37 38 39 40 41 42 43 44 45 46 47 48 49 50
696
AXUS43 KLBF 122310
MISLBF


WESTERN AND NORTH CENTRAL NEBRASKA HOURLY WEATHER ROUNDUP
NATIONAL WEATHER SERVICE NORTH PLATTE NE
500 PM CST FRI FEB 12 2016

NOTE: "FAIR" INDICATES FEW OR NO CLOUDS BELOW 12,000 FEET WITH NO
SIGNIFICANT WEATHER AND/OR OBSTRUCTIONS TO VISIBILITY.

NOTE: STATIONS NOT REPORTING VARIABLES SUCH AS SKY/WEATHER OR
PRESSURE ARE PROVIDED BY THE NEBRASKA DEPARTMENT OF
ROADS...RAWS...AND APRS NETWORKS...AND ARE NOT UNDER
NATIONAL WEATHER SERVICE QUALITY CONTROL.

...OBSERVATIONS IN AND NEAR THE EASTERN PANHANDLE OF NEBRASKA...

CITY           SKY/WX    TMP DP  RH WIND       PRES   REMARKS
PINE RIDGE     CLOUDY    33  26  75 SE8       30.33F WCI  26
CHADRON        CLOUDY    38  29  70 SE8       30.31S WCI  32
ALLIANCE       CLOUDY    34  29  82 S9        30.30S WCI  27
SIDNEY         CLOUDY    32  31  96 SE10      30.31S WCI  24
CRESCENT LAKE    N/A     35  29  78 SE6         N/A  WCI  30
$$

...OBSERVATIONS IN NORTH CENTRAL NEBRASKA...

CITY           SKY/WX    TMP DP  RH WIND       PRES   REMARKS
VALENTINE      CLOUDY    25  16  68 E10       30.44R WCI  15
THEDFORD       CLOUDY    29  23  76 E5        30.42R WCI  24
AINSWORTH      CLOUDY    25  16  69 E6        30.44S WCI  18
O`NEILL        CLOUDY    21  10  62 N9        30.51S WCI  11
ORD            CLOUDY    25  16  68 NE9       30.49R WCI  15
BROKEN BOW     CLOUDY    27  20  75 E8        30.44R WCI  19
VALENTINE NWR    N/A     26  17  67 E6          N/A  WCI  19
BUTTE            N/A     15   9  76 NE12        N/A  WCI   2
HALSEY           N/A     28  20  70 E3          N/A
CHAMBERS         N/A     22   8  54 N5G12       N/A  WCI  16
EWING            N/A     19  11  72 NE3         N/A
$$

...OBSERVATIONS IN SOUTHWEST NEBRASKA AND FAR NORTHEAST COLORADO...

CITY           SKY/WX    TMP DP  RH WIND       PRES   REMARKS
WRAY           CLOUDY    35  32  88 E13       30.34S WCI  26
HOLYOKE        CLOUDY    34  32  93 E9        30.35S FOG     WCI  26
IMPERIAL       CLOUDY    36  29  75 E8        30.37S WCI  30
OGALLALA       CLOUDY    35  29  78 SE9       30.36S WCI  28
NORTH PLATTE   CLOUDY    32  24  72 E8        30.40R WCI  25
MCCOOK         CLOUDY    35  29  78 E12       30.41S WCI  27
LEXINGTON      CLOUDY    29  25  87 E10       30.45R WCI  19
PAXTON           N/A     35  31  84 E6          N/A  WCI  30
STAPLETON        N/A     29  24  81 NE3         N/A
GOTHENBURG       N/A     30  26  85 E8          N/A  WCI  22
CALLAWAY         N/A     27  24  89 E7          N/A  WCI  20
$$

...OBSERVATIONS IN CENTRAL LINCOLN COUNTY AREA...

CITY           SKY/WX    TMP DP  RH WIND       PRES   REMARKS
N.P. AIRPORT   CLOUDY    32  24  72 E8        30.40R WCI  25
N.P. DOWNTOWN    N/A     32  26  78 NE3         N/A
N.P. SOUTHEAST   N/A     32  25  76 E3          N/A
N.P. HILLCREST   N/A     32  27  80 E6          N/A  WCI  26
$$

...SOME OBSERVATIONS FROM AROUND THE REGION...

CITY           SKY/WX    TMP DP  RH WIND       PRES   REMARKS
DENVER         MOSUNNY   48  32  53 E10       30.23F
LARAMIE        SUNNY     43  27  53 NE7       30.24S
CHEYENNE       SUNNY     49  30  48 S15       30.23R
SCOTTSBLUFF    CLOUDY    36  31  82 SE18      30.29R WCI  26
RAPID CITY     FOG       25  23  92 SE13      30.35R VSB 1   WCI  14
BISMARCK       CLEAR     12  -2  53 E9        30.57F WCI   0
PIERRE         CLOUDY    20  10  65 E10       30.52R WCI   9
WINNER         CLOUDY    23  12  62 E7        30.51R WCI  15
SIOUX FALLS    CLOUDY     8  -4  58 N12       30.57R WCI  -7
OMAHA          PTCLDY    19   7  59 N17       30.59R WCI   4
GRAND ISLAND   CLOUDY    24  15  68 NE12      30.51R WCI  13
KANSAS CITY    CLEAR     31  13  47 N16       30.47R WCI  20
WICHITA        CLOUDY    41  25  53 N15       30.46R
OKLAHOMA CITY  SUNNY     57  32  38 NE13      30.35R
LIBERAL        SUNNY     57  30  35 SE14      30.32S
HAYS           CLOUDY    37  21  52 E10       30.44S WCI  30
GOODLAND       CLOUDY    33  30  88 E15       30.35R WCI  23
$$




USA.gov is the U.S. government's official web portal to all federal, state and local government web resources and services.